| time (UTC) | temp F | wind direction | speed MPH | gust MPH | rain 1hr in | rain 24hr in | rain mn in | humidity % | barometer mb |
| 20260506134002 | 60 | 250 | 1.0 | 6.0 | 0.00 | 0.00 | 0.00 | 26 | 1010.6 |
| 20260506133503 | 60 | 283 | 1.0 | 7.0 | 0.00 | 0.00 | 0.00 | 25 | 1010.6 |
| 20260506133024 | 61 | 294 | 0.0 | 7.0 | 0.00 | 0.00 | 0.00 | 25 | 1010.6 |
| 20260506132502 | 61 | 272 | 0.0 | 4.0 | 0.00 | 0.00 | 0.00 | 26 | 1010.6 |
| 20260506132003 | 60 | 265 | 1.0 | 6.0 | 0.00 | 0.00 | 0.00 | 25 | 1010.7 |
| 20260506131524 | 60 | 263 | 1.0 | 6.0 | 0.00 | 0.00 | 0.00 | 27 | 1010.7 |
| 20260506131003 | 60 | 266 | 1.0 | 4.0 | 0.00 | 0.00 | 0.00 | 28 | 1010.6 |
| 20260506130503 | 60 | 257 | 1.0 | 4.0 | 0.00 | 0.00 | 0.00 | 27 | 1010.6 |
| 20260506130003 | 60 | 258 | 1.0 | 2.0 | 0.00 | 0.00 | 0.00 | 26 | 1010.6 |
| 20260506125503 | 62 | 239 | 0.0 | 3.0 | 0.00 | 0.00 | 0.00 | 28 | 1010.7 |
| 20260506125024 | 60 | 277 | 0.0 | 4.0 | 0.00 | 0.00 | 0.00 | 30 | 1010.7 |
| 20260506124503 | 60 | 299 | 1.0 | 4.0 | 0.00 | 0.00 | 0.00 | 29 | 1010.8 |
| 20260506124003 | 59 | 308 | 1.0 | 9.0 | 0.00 | 0.00 | 0.00 | 32 | 1010.8 |
| 20260506123503 | 58 | 311 | 2.0 | 9.0 | 0.00 | 0.00 | 0.00 | 29 | 1010.8 |
| 20260506123003 | 58 | 308 | 1.0 | 9.0 | 0.00 | 0.00 | 0.00 | 30 | 1010.8 |
| 20260506122503 | 58 | 310 | 2.0 | 8.0 | 0.00 | 0.00 | 0.00 | 31 | 1010.8 |
| 20260506122003 | 59 | 310 | 1.0 | 6.0 | 0.00 | 0.00 | 0.00 | 29 | 1010.8 |
| 20260506121503 | 60 | 298 | 1.0 | 4.0 | 0.00 | 0.00 | 0.00 | 28 | 1010.9 |
| 20260506121003 | 59 | 291 | 1.0 | 5.0 | 0.00 | 0.00 | 0.00 | 30 | 1010.8 |
| 20260506120503 | 59 | 269 | 1.0 | 5.0 | 0.00 | 0.00 | 0.00 | 28 | 1010.9 |
| 20260506120003 | 60 | 282 | 1.0 | 5.0 | 0.00 | 0.00 | 0.00 | 30 | 1010.9 |
| 20260506115503 | 59 | 294 | 1.0 | 5.0 | 0.00 | 0.00 | 0.00 | 27 | 1010.8 |
| 20260506115003 | 60 | 296 | 1.0 | 4.0 | 0.00 | 0.00 | 0.00 | 28 | 1010.8 |
| 20260506114503 | 60 | 209 | 1.0 | 4.0 | 0.00 | 0.00 | 0.00 | 28 | 1010.8 |
| 20260506114003 | 60 | 199 | 1.0 | 5.0 | 0.00 | 0.00 | 0.00 | 30 | 1010.8 |
| 20260506113503 | 59 | 256 | 1.0 | 5.0 | 0.00 | 0.00 | 0.00 | 28 | 1010.8 |
| 20260506113003 | 59 | 306 | 1.0 | 7.0 | 0.00 | 0.00 | 0.00 | 31 | 1010.9 |
| 20260506112503 | 59 | 306 | 1.0 | 7.0 | 0.00 | 0.00 | 0.00 | 28 | 1010.9 |
| 20260506112003 | 59 | 298 | 1.0 | 4.0 | 0.00 | 0.00 | 0.00 | 28 | 1010.9 |
| 20260506111503 | 59 | 289 | 1.0 | 4.0 | 0.00 | 0.00 | 0.00 | 31 | 1010.9 |
| 20260506111003 | 58 | 302 | 1.0 | 8.0 | 0.00 | 0.00 | 0.00 | 30 | 1010.9 |
| 20260506110503 | 58 | 288 | 2.0 | 8.0 | 0.00 | 0.00 | 0.00 | 30 | 1010.9 |
| 20260506110024 | 59 | 202 | 1.0 | 6.0 | 0.00 | 0.00 | 0.00 | 28 | 1010.9 |
| 20260506105503 | 60 | 295 | 1.0 | 5.0 | 0.00 | 0.00 | 0.00 | 29 | 1011.0 |
| 20260506105024 | 60 | 311 | 0.0 | 4.0 | 0.00 | 0.00 | 0.00 | 29 | 1011.0 |
| 20260506104503 | 59 | 308 | 0.0 | 3.0 | 0.00 | 0.00 | 0.00 | 31 | 1011.0 |
| 20260506104002 | 58 | 313 | 1.0 | 5.0 | 0.00 | 0.00 | 0.00 | 28 | 1011.0 |
| 20260506103503 | 59 | 314 | 1.0 | 5.0 | 0.00 | 0.00 | 0.00 | 28 | 1011.0 |
| 20260506103002 | 60 | 302 | 1.0 | 5.0 | 0.00 | 0.00 | 0.00 | 27 | 1011.0 |
| 20260506102524 | 61 | 299 | 0.0 | 4.0 | 0.00 | 0.00 | 0.00 | 23 | 1011.0 |
| 20260506102024 | 62 | 154 | 0.0 | 4.0 | 0.00 | 0.00 | 0.00 | 26 | 1011.0 |
| 20260506101502 | 61 | 157 | 0.0 | 4.0 | 0.00 | 0.00 | 0.00 | 24 | 1011.1 |
| 20260506101003 | 61 | 266 | 0.0 | 1.0 | 0.00 | 0.00 | 0.00 | 27 | 1011.1 |
| 20260506100503 | 60 | 268 | 0.0 | 1.0 | 0.00 | 0.00 | 0.00 | 29 | 1011.1 |
| 20260506100003 | 59 | 264 | 0.0 | 1.0 | 0.00 | 0.00 | 0.00 | 27 | 1011.2 |
| 20260506095524 | 59 | 313 | 1.0 | 4.0 | 0.00 | 0.00 | 0.00 | 28 | 1011.2 |
| 20260506095003 | 57 | 309 | 1.0 | 5.0 | 0.00 | 0.00 | 0.00 | 28 | 1011.3 |
| 20260506094503 | 59 | 303 | 0.0 | 5.0 | 0.00 | 0.00 | 0.00 | 25 | 1011.3 |
| 20260506094003 | 60 | 125 | 0.0 | 1.0 | 0.00 | 0.00 | 0.00 | 28 | 1011.3 |
| 20260506093503 | 59 | 307 | 0.0 | 3.0 | 0.00 | 0.00 | 0.00 | 31 | 1011.3 |
| 20260506093002 | 57 | 302 | 0.0 | 3.0 | 0.00 | 0.00 | 0.00 | 31 | 1011.4 |
| 20260506092503 | 57 | 300 | 0.0 | 2.0 | 0.00 | 0.00 | 0.00 | 29 | 1011.3 |
| 20260506092003 | 57 | 296 | 0.0 | 2.0 | 0.00 | 0.00 | 0.00 | 31 | 1011.3 |
| 20260506091524 | 56 | 297 | 0.0 | 3.0 | 0.00 | 0.00 | 0.00 | 28 | 1011.3 |
| 20260506091002 | 57 | 297 | 0.0 | 3.0 | 0.00 | 0.00 | 0.00 | 28 | 1011.3 |
| 20260506090503 | 57 | 231 | 0.0 | 2.0 | 0.00 | 0.00 | 0.00 | 27 | 1011.4 |
| 20260506090003 | 57 | 209 | 0.0 | 3.0 | 0.00 | 0.00 | 0.00 | 32 | 1011.4 |
| 20260506085503 | 56 | 286 | 0.0 | 3.0 | 0.00 | 0.00 | 0.00 | 30 | 1011.4 |
| 20260506085003 | 56 | 286 | 0.0 | 2.0 | 0.00 | 0.00 | 0.00 | 30 | 1011.4 |
| 20260506084503 | 56 | 307 | 0.0 | 1.0 | 0.00 | 0.00 | 0.00 | 29 | 1011.4 |
| 20260506084003 | 56 | 276 | 0.0 | 1.0 | 0.00 | 0.00 | 0.00 | 30 | 1011.5 |
| 20260506083502 | 56 | 254 | 0.0 | 3.0 | 0.00 | 0.00 | 0.00 | 29 | 1011.5 |
| 20260506083024 | 56 | 308 | 0.0 | 3.0 | 0.00 | 0.00 | 0.00 | 30 | 1011.5 |
| 20260506082503 | 56 | 306 | 0.0 | 3.0 | 0.00 | 0.00 | 0.00 | 32 | 1011.4 |
| 20260506082003 | 55 | 257 | 0.0 | 1.0 | 0.00 | 0.00 | 0.00 | 31 | 1011.5 |
| 20260506081524 | 56 | 292 | 0.0 | 3.0 | 0.00 | 0.00 | 0.00 | 31 | 1011.4 |
| 20260506081003 | 55 | 265 | 0.0 | 3.0 | 0.00 | 0.00 | 0.00 | 33 | 1011.4 |
| 20260506080503 | 55 | 153 | 0.0 | 2.0 | 0.00 | 0.00 | 0.00 | 33 | 1011.4 |
| 20260506073502 | 52 | 258 | 0.0 | 1.0 | 0.00 | 0.00 | 0.00 | 39 | 1011.5 |
| 20260506073003 | 52 | 178 | 0.0 | 1.0 | 0.00 | 0.00 | 0.00 | 43 | 1011.5 |
| 20260506072524 | 52 | 147 | 0.0 | 1.0 | 0.00 | 0.00 | 0.00 | 45 | 1011.5 |
| 20260506072003 | 52 | 127 | 0.0 | 1.0 | 0.00 | 0.00 | 0.00 | 46 | 1011.6 |
| 20260506071503 | 51 | 127 | 0.0 | 1.0 | 0.00 | 0.00 | 0.00 | 48 | 1011.5 |
| 20260506071003 | 50 | 122 | 0.0 | 1.0 | 0.00 | 0.00 | 0.00 | 51 | 1011.4 |
| 20260506070524 | 49 | 122 | 0.0 | 1.0 | 0.00 | 0.00 | 0.00 | 53 | 1011.5 |
| 20260506062502 | 39 | 0 | 0.0 | 0.0 | 0.00 | 0.00 | 0.00 | 65 | 1011.6 |
| 20260506062003 | 39 | 0 | 0.0 | 0.0 | 0.00 | 0.00 | 0.00 | 61 | 1011.6 |
| 20260506061503 | 38 | 0 | 0.0 | 0.0 | 0.00 | 0.00 | 0.00 | 52 | 1011.6 |
| 20260506061003 | 38 | 0 | 0.0 | 0.0 | 0.00 | 0.00 | 0.00 | 34 | 1011.6 |
| 20260506060503 | 37 | 0 | 0.0 | 0.0 | 0.00 | 0.00 | 0.00 | 23 | 1011.7 |
| 20260506051003 | 31 | 0 | 0.0 | 0.0 | 0.00 | 0.00 | 0.00 | 14 | 1011.9 |
| 20260506050524 | 31 | 0 | 0.0 | 0.0 | 0.00 | 0.00 | 0.00 | 15 | 1011.9 |
| 20260506045003 | 30 | 0 | 0.0 | 0.0 | 0.00 | 0.00 | 0.00 | 16 | 1011.9 |
| 20260506044503 | 30 | 0 | 0.0 | 0.0 | 0.00 | 0.00 | 0.00 | 17 | 1012.0 |
| 20260506044003 | 30 | 0 | 0.0 | 0.0 | 0.00 | 0.00 | 0.00 | 19 | 1011.9 |
| 20260506043503 | 30 | 0 | 0.0 | 0.0 | 0.00 | 0.00 | 0.00 | 20 | 1011.9 |
| 20260506043003 | 30 | 0 | 0.0 | 0.0 | 0.00 | 0.00 | 0.00 | 21 | 1011.9 |
| 20260506042502 | 30 | 0 | 0.0 | 0.0 | 0.00 | 0.00 | 0.00 | 22 | 1011.9 |
| 20260506042003 | 29 | 0 | 0.0 | 0.0 | 0.00 | 0.00 | 0.00 | 24 | 1011.9 |
| 20260506041503 | 29 | 0 | 0.0 | 0.0 | 0.00 | 0.00 | 0.00 | 27 | 1011.9 |
| 20260506041003 | 29 | 0 | 0.0 | 0.0 | 0.00 | 0.00 | 0.00 | 29 | 1011.9 |
| 20260506040503 | 29 | 0 | 0.0 | 0.0 | 0.00 | 0.00 | 0.00 | 30 | 1011.9 |
| 20260506040003 | 29 | 0 | 0.0 | 0.0 | 0.00 | 0.00 | 0.00 | 30 | 1011.9 |
| 20260506035503 | 29 | 0 | 0.0 | 0.0 | 0.00 | 0.00 | 0.00 | 31 | 1011.9 |
| 20260506035024 | 28 | 0 | 0.0 | 0.0 | 0.00 | 0.00 | 0.00 | 32 | 1011.8 |
| 20260506034503 | 28 | 0 | 0.0 | 0.0 | 0.00 | 0.00 | 0.00 | 33 | 1011.9 |
| 20260506034003 | 28 | 0 | 0.0 | 0.0 | 0.00 | 0.00 | 0.00 | 34 | 1011.8 |
| 20260506033524 | 28 | 0 | 0.0 | 0.0 | 0.00 | 0.00 | 0.00 | 34 | 1011.8 |
| 20260506033002 | 28 | 0 | 0.0 | 0.0 | 0.00 | 0.00 | 0.00 | 35 | 1011.8 |
| 20260506032502 | 28 | 0 | 0.0 | 0.0 | 0.00 | 0.00 | 0.00 | 36 | 1011.8 |
| 20260506032003 | 28 | 0 | 0.0 | 0.0 | 0.00 | 0.00 | 0.00 | 36 | 1011.8 |
| 20260506031503 | 29 | 0 | 0.0 | 0.0 | 0.00 | 0.00 | 0.00 | 36 | 1011.7 |
| 20260506031003 | 28 | 0 | 0.0 | 0.0 | 0.00 | 0.00 | 0.00 | 38 | 1011.7 |
| 20260506030503 | 29 | 0 | 0.0 | 0.0 | 0.00 | 0.00 | 0.00 | 39 | 1011.7 |
| 20260506030003 | 29 | 0 | 0.0 | 0.0 | 0.00 | 0.00 | 0.00 | 39 | 1011.7 |
| 20260506025524 | 29 | 0 | 0.0 | 0.0 | 0.00 | 0.00 | 0.00 | 39 | 1011.7 |
| 20260506025003 | 29 | 0 | 0.0 | 0.0 | 0.00 | 0.00 | 0.00 | 39 | 1011.8 |
| 20260506024503 | 29 | 0 | 0.0 | 0.0 | 0.00 | 0.00 | 0.00 | 40 | 1011.8 |
| 20260506024003 | 29 | 0 | 0.0 | 0.0 | 0.00 | 0.00 | 0.00 | 40 | 1011.7 |
| 20260506023503 | 29 | 0 | 0.0 | 0.0 | 0.00 | 0.00 | 0.00 | 40 | 1011.7 |
| 20260506023002 | 29 | 0 | 0.0 | 0.0 | 0.00 | 0.00 | 0.00 | 40 | 1011.6 |
| 20260506022502 | 29 | 0 | 0.0 | 0.0 | 0.00 | 0.00 | 0.00 | 40 | 1011.6 |
| 20260506022003 | 29 | 0 | 0.0 | 0.0 | 0.00 | 0.00 | 0.00 | 39 | 1011.6 |
| 20260506021502 | 29 | 0 | 0.0 | 0.0 | 0.00 | 0.00 | 0.00 | 39 | 1011.6 |
| 20260506021003 | 29 | 0 | 0.0 | 0.0 | 0.00 | 0.00 | 0.00 | 41 | 1011.7 |
| 20260506020503 | 30 | 0 | 0.0 | 0.0 | 0.00 | 0.00 | 0.00 | 42 | 1011.7 |
| 20260506020024 | 30 | 0 | 0.0 | 0.0 | 0.00 | 0.00 | 0.00 | 42 | 1011.6 |
| 20260506015503 | 30 | 0 | 0.0 | 0.0 | 0.00 | 0.00 | 0.00 | 43 | 1011.6 |
| 20260506015003 | 30 | 0 | 0.0 | 0.0 | 0.00 | 0.00 | 0.00 | 45 | 1011.6 |
| 20260506014503 | 30 | 0 | 0.0 | 0.0 | 0.00 | 0.00 | 0.00 | 46 | 1011.5 |
| 20260506014003 | 30 | 0 | 0.0 | 0.0 | 0.00 | 0.00 | 0.00 | 46 | 1011.5 |
| 20260506013503 | 30 | 0 | 0.0 | 0.0 | 0.00 | 0.00 | 0.00 | 47 | 1011.4 |
| 20260506013002 | 30 | 0 | 0.0 | 0.0 | 0.00 | 0.00 | 0.00 | 49 | 1011.4 |
| 20260506012502 | 30 | 0 | 0.0 | 0.0 | 0.00 | 0.00 | 0.00 | 50 | 1011.4 |
| 20260506012003 | 30 | 0 | 0.0 | 0.0 | 0.00 | 0.00 | 0.00 | 50 | 1011.4 |
| 20260506011503 | 30 | 0 | 0.0 | 0.0 | 0.00 | 0.00 | 0.00 | 51 | 1011.4 |
| 20260506011024 | 30 | 0 | 0.0 | 0.0 | 0.00 | 0.00 | 0.00 | 51 | 1011.3 |
| 20260506010524 | 31 | 0 | 0.0 | 0.0 | 0.00 | 0.00 | 0.00 | 53 | 1011.4 |
| 20260506010003 | 31 | 0 | 0.0 | 0.0 | 0.00 | 0.00 | 0.00 | 53 | 1011.3 |
| 20260506005503 | 31 | 0 | 0.0 | 0.0 | 0.00 | 0.00 | 0.00 | 53 | 1011.3 |
| 20260506005003 | 31 | 0 | 0.0 | 0.0 | 0.00 | 0.00 | 0.00 | 53 | 1011.4 |
| 20260506004504 | 31 | 0 | 0.0 | 0.0 | 0.00 | 0.00 | 0.00 | 55 | 1011.3 |
| 20260506004003 | 31 | 0 | 0.0 | 0.0 | 0.00 | 0.00 | 0.00 | 56 | 1011.3 |
| 20260506003503 | 31 | 0 | 0.0 | 0.0 | 0.00 | 0.00 | 0.00 | 56 | 1011.3 |
| 20260506003023 | 31 | 0 | 0.0 | 0.0 | 0.00 | 0.00 | 0.00 | 56 | 1011.2 |
| 20260506002503 | 32 | 0 | 0.0 | 0.0 | 0.00 | 0.00 | 0.00 | 56 | 1011.3 |
| 20260506002024 | 32 | 0 | 0.0 | 0.0 | 0.00 | 0.00 | 0.00 | 56 | 1011.4 |
| 20260506001502 | 32 | 0 | 0.0 | 0.0 | 0.00 | 0.00 | 0.00 | 56 | 1011.4 |
| 20260506001003 | 32 | 0 | 0.0 | 0.0 | 0.00 | 0.00 | 0.00 | 57 | 1011.4 |
| 20260506000503 | 32 | 0 | 0.0 | 0.0 | 0.00 | 0.00 | 0.00 | 56 | 1011.3 |
| 20260506000024 | 32 | 0 | 0.0 | 0.0 | 0.00 | 0.00 | 0.00 | 56 | 1011.4 |
| 20260505235503 | 32 | 0 | 0.0 | 0.0 | 0.00 | 0.00 | 0.00 | 58 | 1011.4 |
| 20260505235024 | 32 | 0 | 0.0 | 0.0 | 0.00 | 0.00 | 0.00 | 59 | 1011.4 |
| 20260505234503 | 32 | 0 | 0.0 | 0.0 | 0.00 | 0.00 | 0.00 | 59 | 1011.4 |
| 20260505234003 | 32 | 0 | 0.0 | 0.0 | 0.00 | 0.00 | 0.00 | 60 | 1011.4 |
| 20260505233503 | 32 | 0 | 0.0 | 0.0 | 0.00 | 0.00 | 0.00 | 61 | 1011.5 |
| 20260505233003 | 32 | 0 | 0.0 | 0.0 | 0.00 | 0.00 | 0.00 | 62 | 1011.5 |
| 20260505232503 | 32 | 0 | 0.0 | 0.0 | 0.00 | 0.00 | 0.00 | 63 | 1011.5 |
| 20260505232002 | 33 | 0 | 0.0 | 0.0 | 0.00 | 0.00 | 0.00 | 65 | 1011.5 |
| 20260505231503 | 33 | 0 | 0.0 | 0.0 | 0.00 | 0.00 | 0.00 | 66 | 1011.5 |
| 20260505231003 | 33 | 0 | 0.0 | 0.0 | 0.00 | 0.00 | 0.00 | 66 | 1011.4 |
| 20260505230524 | 33 | 0 | 0.0 | 0.0 | 0.00 | 0.00 | 0.00 | 67 | 1011.4 |
| 20260505230024 | 33 | 0 | 0.0 | 0.0 | 0.00 | 0.00 | 0.00 | 67 | 1011.5 |
| 20260505225503 | 33 | 0 | 0.0 | 0.0 | 0.00 | 0.00 | 0.00 | 68 | 1011.5 |
| 20260505225003 | 34 | 0 | 0.0 | 0.0 | 0.00 | 0.00 | 0.00 | 68 | 1011.5 |
| 20260505224503 | 34 | 0 | 0.0 | 0.0 | 0.00 | 0.00 | 0.00 | 68 | 1011.5 |
| 20260505224024 | 34 | 0 | 0.0 | 0.0 | 0.00 | 0.00 | 0.00 | 69 | 1011.5 |
| 20260505223503 | 34 | 0 | 0.0 | 0.0 | 0.00 | 0.00 | 0.00 | 69 | 1011.5 |
| 20260505223003 | 34 | 0 | 0.0 | 0.0 | 0.00 | 0.00 | 0.00 | 69 | 1011.5 |
| 20260505222503 | 34 | 0 | 0.0 | 0.0 | 0.00 | 0.00 | 0.00 | 70 | 1011.6 |
| 20260505222003 | 34 | 0 | 0.0 | 0.0 | 0.00 | 0.00 | 0.00 | 70 | 1011.6 |
| 20260505221523 | 34 | 0 | 0.0 | 0.0 | 0.00 | 0.00 | 0.00 | 70 | 1011.6 |
| 20260505221003 | 35 | 0 | 0.0 | 0.0 | 0.00 | 0.00 | 0.00 | 70 | 1011.6 |
| 20260505220503 | 35 | 0 | 0.0 | 0.0 | 0.00 | 0.00 | 0.00 | 70 | 1011.6 |
| 20260505220004 | 35 | 0 | 0.0 | 0.0 | 0.00 | 0.00 | 0.00 | 70 | 1011.6 |
| 20260505215503 | 35 | 0 | 0.0 | 0.0 | 0.00 | 0.00 | 0.00 | 70 | 1011.6 |
| 20260505215003 | 35 | 0 | 0.0 | 0.0 | 0.00 | 0.00 | 0.00 | 71 | 1011.6 |
| 20260505214524 | 35 | 0 | 0.0 | 0.0 | 0.00 | 0.00 | 0.00 | 71 | 1011.6 |
| 20260505214024 | 36 | 0 | 0.0 | 0.0 | 0.00 | 0.00 | 0.00 | 71 | 1011.5 |
| 20260505213524 | 36 | 0 | 0.0 | 0.0 | 0.00 | 0.00 | 0.00 | 71 | 1011.5 |
| 20260505213003 | 36 | 0 | 0.0 | 0.0 | 0.00 | 0.00 | 0.00 | 71 | 1011.5 |
| 20260505212503 | 36 | 0 | 0.0 | 0.0 | 0.00 | 0.00 | 0.00 | 71 | 1011.5 |
| 20260505212003 | 36 | 0 | 0.0 | 0.0 | 0.00 | 0.00 | 0.00 | 71 | 1011.6 |
| 20260505211523 | 37 | 0 | 0.0 | 0.0 | 0.00 | 0.00 | 0.00 | 71 | 1011.5 |
| 20260505211003 | 37 | 0 | 0.0 | 0.0 | 0.00 | 0.00 | 0.00 | 70 | 1011.5 |
| 20260505210524 | 37 | 0 | 0.0 | 0.0 | 0.00 | 0.00 | 0.00 | 70 | 1011.5 |
| 20260505210024 | 37 | 0 | 0.0 | 0.0 | 0.00 | 0.00 | 0.00 | 70 | 1011.5 |
| 20260505205524 | 37 | 0 | 0.0 | 0.0 | 0.00 | 0.00 | 0.00 | 70 | 1011.5 |
| 20260505205003 | 37 | 0 | 0.0 | 0.0 | 0.00 | 0.00 | 0.00 | 70 | 1011.4 |
| 20260505204503 | 37 | 0 | 0.0 | 0.0 | 0.00 | 0.00 | 0.00 | 70 | 1011.4 |
| 20260505204003 | 37 | 0 | 0.0 | 0.0 | 0.00 | 0.00 | 0.00 | 70 | 1011.4 |
| 20260505203503 | 38 | 0 | 0.0 | 0.0 | 0.00 | 0.00 | 0.00 | 70 | 1011.4 |
| 20260505203003 | 38 | 0 | 0.0 | 0.0 | 0.00 | 0.00 | 0.00 | 69 | 1011.4 |
| 20260505202503 | 38 | 0 | 0.0 | 0.0 | 0.00 | 0.00 | 0.00 | 69 | 1011.4 |
| 20260505202024 | 38 | 0 | 0.0 | 0.0 | 0.00 | 0.00 | 0.00 | 69 | 1011.4 |
| 20260505201524 | 39 | 0 | 0.0 | 0.0 | 0.00 | 0.00 | 0.00 | 68 | 1011.4 |
| 20260505201003 | 39 | 0 | 0.0 | 0.0 | 0.00 | 0.00 | 0.00 | 67 | 1011.3 |
| 20260505200503 | 39 | 0 | 0.0 | 0.0 | 0.00 | 0.00 | 0.00 | 67 | 1011.3 |
| 20260505200003 | 40 | 0 | 0.0 | 0.0 | 0.00 | 0.00 | 0.00 | 66 | 1011.3 |
| 20260505195503 | 40 | 0 | 0.0 | 0.0 | 0.00 | 0.00 | 0.00 | 65 | 1011.3 |
| 20260505195003 | 40 | 0 | 0.0 | 0.0 | 0.00 | 0.00 | 0.00 | 65 | 1011.3 |
| 20260505194503 | 41 | 0 | 0.0 | 0.0 | 0.00 | 0.00 | 0.00 | 64 | 1011.3 |
| 20260505194003 | 41 | 0 | 0.0 | 0.0 | 0.00 | 0.00 | 0.00 | 63 | 1011.3 |
| 20260505193503 | 41 | 0 | 0.0 | 0.0 | 0.00 | 0.00 | 0.00 | 62 | 1011.2 |
| 20260505193003 | 42 | 0 | 0.0 | 0.0 | 0.00 | 0.00 | 0.00 | 62 | 1011.1 |
| 20260505192503 | 42 | 0 | 0.0 | 0.0 | 0.00 | 0.00 | 0.00 | 61 | 1011.1 |
| 20260505192002 | 43 | 0 | 0.0 | 0.0 | 0.00 | 0.00 | 0.00 | 60 | 1011.0 |
| 20260505191503 | 43 | 0 | 0.0 | 0.0 | 0.00 | 0.00 | 0.00 | 59 | 1011.1 |
| 20260505191003 | 44 | 0 | 0.0 | 0.0 | 0.00 | 0.00 | 0.00 | 59 | 1011.0 |
| 20260505190503 | 44 | 0 | 0.0 | 0.0 | 0.00 | 0.00 | 0.00 | 57 | 1011.0 |
| 20260505190024 | 44 | 0 | 0.0 | 0.0 | 0.00 | 0.00 | 0.00 | 56 | 1011.0 |
| 20260505185503 | 45 | 0 | 0.0 | 0.0 | 0.00 | 0.00 | 0.00 | 54 | 1010.9 |
| 20260505185003 | 46 | 0 | 0.0 | 0.0 | 0.00 | 0.00 | 0.00 | 53 | 1010.9 |
| 20260505184503 | 46 | 0 | 0.0 | 0.0 | 0.00 | 0.00 | 0.00 | 52 | 1010.9 |
| 20260505184003 | 47 | 0 | 0.0 | 0.0 | 0.00 | 0.00 | 0.00 | 49 | 1010.9 |
| 20260505183503 | 48 | 0 | 0.0 | 0.0 | 0.00 | 0.00 | 0.00 | 48 | 1010.9 |
| 20260505183003 | 48 | 0 | 0.0 | 0.0 | 0.00 | 0.00 | 0.00 | 45 | 1010.8 |
| 20260505182503 | 49 | 0 | 0.0 | 0.0 | 0.00 | 0.00 | 0.00 | 44 | 1010.8 |
| 20260505182023 | 50 | 0 | 0.0 | 0.0 | 0.00 | 0.00 | 0.00 | 43 | 1010.8 |
| 20260505181503 | 51 | 0 | 0.0 | 0.0 | 0.00 | 0.00 | 0.00 | 41 | 1010.8 |
| 20260505181003 | 52 | 0 | 0.0 | 0.0 | 0.00 | 0.00 | 0.00 | 39 | 1010.8 |
| 20260505180503 | 54 | 0 | 0.0 | 0.0 | 0.00 | 0.00 | 0.00 | 38 | 1010.9 |
| 20260505180003 | 55 | 0 | 0.0 | 0.0 | 0.00 | 0.00 | 0.00 | 39 | 1010.8 |
| 20260505175503 | 55 | 324 | 0.0 | 1.0 | 0.00 | 0.00 | 0.00 | 36 | 1010.8 |
| 20260505175003 | 55 | 324 | 0.0 | 1.0 | 0.00 | 0.00 | 0.00 | 36 | 1010.7 |
| 20260505174503 | 56 | 0 | 0.0 | 0.0 | 0.00 | 0.00 | 0.00 | 36 | 1010.7 |
| 20260505174003 | 57 | 312 | 0.0 | 1.0 | 0.00 | 0.00 | 0.00 | 35 | 1010.7 |
| 20260505173503 | 57 | 312 | 0.0 | 1.0 | 0.00 | 0.00 | 0.00 | 35 | 1010.6 |
| 20260505173003 | 56 | 261 | 0.0 | 1.0 | 0.00 | 0.00 | 0.00 | 36 | 1010.8 |
| 20260505172503 | 56 | 155 | 0.0 | 3.0 | 0.00 | 0.00 | 0.00 | 35 | 1010.8 |
| 20260505172002 | 57 | 175 | 0.0 | 3.0 | 0.00 | 0.00 | 0.00 | 36 | 1010.7 |
| 20260505171503 | 56 | 293 | 0.0 | 4.0 | 0.00 | 0.00 | 0.00 | 36 | 1010.6 |
| 20260505171003 | 55 | 294 | 0.0 | 4.0 | 0.00 | 0.00 | 0.00 | 38 | 1010.6 |
| 20260505170503 | 56 | 304 | 0.0 | 3.0 | 0.00 | 0.00 | 0.00 | 36 | 1010.6 |
| 20260505170024 | 56 | 306 | 0.0 | 3.0 | 0.00 | 0.00 | 0.00 | 33 | 1010.6 |
| 20260505165503 | 56 | 325 | 0.0 | 2.0 | 0.00 | 0.00 | 0.00 | 35 | 1010.6 |
| 20260505165024 | 55 | 311 | 0.0 | 3.0 | 0.00 | 0.00 | 0.00 | 35 | 1010.5 |
| 20260505164503 | 55 | 303 | 0.0 | 4.0 | 0.00 | 0.00 | 0.00 | 36 | 1010.6 |
| 20260505164003 | 55 | 305 | 0.0 | 4.0 | 0.00 | 0.00 | 0.00 | 36 | 1010.8 |
| 20260505163503 | 55 | 298 | 0.0 | 3.0 | 0.00 | 0.00 | 0.00 | 36 | 1010.8 |
| 20260505163024 | 55 | 308 | 0.0 | 5.0 | 0.00 | 0.00 | 0.00 | 37 | 1010.8 |
| 20260505162503 | 54 | 305 | 1.0 | 5.0 | 0.00 | 0.00 | 0.00 | 36 | 1010.8 |
| 20260505162003 | 55 | 311 | 0.0 | 5.0 | 0.00 | 0.00 | 0.00 | 37 | 1010.8 |
| 20260505161523 | 55 | 309 | 1.0 | 5.0 | 0.00 | 0.00 | 0.00 | 36 | 1010.8 |
| 20260505161002 | 55 | 269 | 1.0 | 5.0 | 0.00 | 0.00 | 0.00 | 37 | 1010.8 |
| 20260505160503 | 55 | 262 | 1.0 | 5.0 | 0.00 | 0.00 | 0.00 | 37 | 1010.8 |
| 20260505153003 | 55 | 298 | 0.0 | 4.0 | 0.00 | 0.00 | 0.00 | 39 | 1010.7 |
| 20260505152504 | 55 | 305 | 1.0 | 6.0 | 0.00 | 0.00 | 0.00 | 38 | 1010.9 |
| 20260505152003 | 56 | 303 | 1.0 | 6.0 | 0.00 | 0.00 | 0.00 | 36 | 1010.8 |
| 20260505151503 | 57 | 291 | 0.0 | 4.0 | 0.00 | 0.00 | 0.00 | 34 | 1010.8 |
| 20260505151024 | 58 | 311 | 0.0 | 4.0 | 0.00 | 0.00 | 0.00 | 31 | 1010.8 |
| 20260505150503 | 57 | 316 | 1.0 | 5.0 | 0.00 | 0.00 | 0.00 | 33 | 1010.8 |
| 20260505140524 | 59 | 301 | 0.0 | 2.0 | 0.00 | 0.00 | 0.00 | 30 | 1010.7 |